Time,TemperatureF,DewpointF,PressureIn,WindDirection,WindDirectionDegrees,WindSpeedMPH,WindSpeedGustMPH,Humidity,HourlyPrecipIn,Conditions,Clouds,dailyrainin,SoftwareType,DateUTC
2013-06-11 00:01:00,66.9,64.5,29.70,WSW,248,4.3,4.7,92,0.00,RA,,0.00,WeatherDisplay:10.37,2013-06-11 04:01:00,
2013-06-11 00:02:00,66.7,64.3,29.70,West,270,5.2,5.8,92,0.00,RA,,0.00,WeatherDisplay:10.37,2013-06-11 04:02:00,
2013-06-11 00:07:00,66.6,64.5,29.70,SW,225,5.6,6.9,93,0.00,RA,,0.00,WeatherDisplay:10.37,2013-06-11 04:07:00,
2013-06-11 00:12:00,66.4,64.6,29.70,WSW,248,7.7,9.9,94,0.00,OVC,,0.00,WeatherDisplay:10.37,2013-06-11 04:12:00,
2013-06-11 00:17:00,66.2,64.7,29.71,West,270,8.0,9.2,95,0.00,OVC,,0.00,WeatherDisplay:10.37,2013-06-11 04:17:00,
2013-06-11 00:22:00,66.0,64.5,29.71,West,270,4.9,9.2,95,0.00,OVC,,0.00,WeatherDisplay:10.37,2013-06-11 04:22:00,
2013-06-11 00:27:00,65.8,64.3,29.71,WSW,248,5.6,6.9,95,0.00,OVC,,0.00,WeatherDisplay:10.37,2013-06-11 04:27:00,
2013-06-11 00:32:00,65.7,64.2,29.70,WSW,248,6.9,6.9,95,0.00,OVC,,0.00,WeatherDisplay:10.37,2013-06-11 04:32:00,
2013-06-11 00:37:00,65.7,64.2,29.70,West,270,7.5,9.2,95,0.00,OVC,,0.00,WeatherDisplay:10.37,2013-06-11 04:37:00,
2013-06-11 00:42:00,65.5,64.0,29.70,West,270,6.9,9.2,95,0.00,OVC,,0.00,WeatherDisplay:10.37,2013-06-11 04:42:00,
2013-06-11 00:47:00,65.5,64.0,29.70,West,270,6.9,8.1,95,0.00,OVC,,0.00,WeatherDisplay:10.37,2013-06-11 04:47:00,
2013-06-11 00:52:00,65.5,64.0,29.70,West,270,7.9,10.4,95,0.00,OVC,,0.00,WeatherDisplay:10.37,2013-06-11 04:52:00,
2013-06-11 00:57:00,65.5,64.0,29.71,NE,45,5.0,6.9,95,0.00,OVC,,0.00,WeatherDisplay:10.37,2013-06-11 04:57:00,
2013-06-11 01:02:00,65.5,64.0,29.71,SW,225,6.6,8.1,95,0.00,OVC,,0.00,WeatherDisplay:10.37,2013-06-11 05:02:00,
2013-06-11 01:07:00,65.5,64.0,29.70,SW,225,7.4,10.9,95,0.00,OVC,,0.00,WeatherDisplay:10.37,2013-06-11 05:07:00,
2013-06-11 01:12:00,65.3,63.8,29.70,WSW,248,6.4,8.1,95,0.00,OVC,,0.00,WeatherDisplay:10.37,2013-06-11 05:12:00,
2013-06-11 01:17:00,65.3,63.8,29.70,SW,225,5.3,5.8,95,0.00,OVC,,0.00,WeatherDisplay:10.37,2013-06-11 05:17:00,
2013-06-11 01:22:00,65.1,63.6,29.70,SW,225,7.6,10.4,95,0.00,OVC,,0.00,WeatherDisplay:10.37,2013-06-11 05:22:00,
2013-06-11 01:27:00,65.1,63.6,29.70,West,270,5.5,6.3,95,0.00,OVC,,0.00,WeatherDisplay:10.37,2013-06-11 05:27:00,
2013-06-11 01:32:00,65.1,63.6,29.70,WSW,248,4.8,5.8,95,0.00,OVC,,0.00,WeatherDisplay:10.37,2013-06-11 05:32:00,
2013-06-11 01:37:00,65.1,63.6,29.70,SW,225,5.9,8.1,95,0.00,OVC,,0.00,WeatherDisplay:10.37,2013-06-11 05:37:00,
2013-06-11 01:42:00,65.1,63.6,29.69,West,270,3.4,6.9,95,0.00,OVC,,0.00,WeatherDisplay:10.37,2013-06-11 05:42:00,
2013-06-11 01:47:00,64.9,63.4,29.69,SSW,202,4.8,5.8,95,0.00,OVC,,0.00,WeatherDisplay:10.37,2013-06-11 05:47:00,
2013-06-11 01:52:00,64.9,63.4,29.69,SW,225,1.9,2.3,95,0.00,OVC,,0.00,WeatherDisplay:10.37,2013-06-11 05:52:00,
2013-06-11 01:57:00,64.9,63.4,29.69,WSW,248,2.9,3.7,95,0.00,OVC,,0.00,WeatherDisplay:10.37,2013-06-11 05:57:00,
2013-06-11 02:02:00,64.9,63.4,29.69,WSW,248,3.4,4.2,95,0.00,OVC,,0.00,WeatherDisplay:10.37,2013-06-11 06:02:00,
2013-06-11 02:07:00,64.9,63.4,29.69,WSW,248,1.3,3.2,95,0.00,OVC,,0.00,WeatherDisplay:10.37,2013-06-11 06:07:00,
2013-06-11 02:12:00,64.9,63.4,29.69,SW,225,4.0,5.8,95,0.00,OVC,,0.00,WeatherDisplay:10.37,2013-06-11 06:12:00,
2013-06-11 02:17:00,64.9,63.4,29.69,WSW,248,3.5,4.6,95,0.00,OVC,,0.00,WeatherDisplay:10.37,2013-06-11 06:17:00,
2013-06-11 02:22:00,64.9,63.4,29.68,West,270,4.8,7.3,95,0.00,OVC,,0.00,WeatherDisplay:10.37,2013-06-11 06:22:00,
2013-06-11 02:27:00,65.3,63.8,29.68,SW,225,4.8,6.9,95,0.00,OVC,,0.00,WeatherDisplay:10.37,2013-06-11 06:27:00,
2013-06-11 02:32:00,64.9,63.4,29.68,SSW,202,4.0,4.6,95,0.00,OVC,,0.00,WeatherDisplay:10.37,2013-06-11 06:32:00,
2013-06-11 02:37:00,64.9,63.4,29.68,WSW,248,4.6,9.2,95,0.00,OVC,,0.00,WeatherDisplay:10.37,2013-06-11 06:37:00,
2013-06-11 02:42:00,64.9,63.4,29.69,West,270,3.5,4.6,95,0.00,OVC,,0.00,WeatherDisplay:10.37,2013-06-11 06:42:00,
2013-06-11 02:47:00,65.1,63.6,29.69,WSW,248,5.7,6.9,95,0.00,OVC,,0.00,WeatherDisplay:10.37,2013-06-11 06:47:00,
2013-06-11 02:52:00,65.1,63.6,29.69,SSW,202,4.2,5.8,95,0.00,OVC,,0.00,WeatherDisplay:10.37,2013-06-11 06:52:00,
2013-06-11 02:57:00,65.3,63.8,29.69,SW,225,4.1,4.6,95,0.00,OVC,,0.00,WeatherDisplay:10.37,2013-06-11 06:57:00,
2013-06-11 03:02:00,65.5,64.0,29.69,West,270,5.7,6.3,95,0.00,OVC,,0.00,WeatherDisplay:10.37,2013-06-11 07:02:00,
2013-06-11 03:07:00,65.7,64.2,29.68,WSW,248,6.2,9.2,95,0.00,OVC,,0.00,WeatherDisplay:10.37,2013-06-11 07:07:00,
2013-06-11 03:12:00,65.7,64.2,29.68,SSW,202,6.6,9.2,95,0.00,OVC,,0.00,WeatherDisplay:10.37,2013-06-11 07:12:00,
2013-06-11 03:17:00,65.8,64.3,29.68,West,270,6.9,8.1,95,0.00,OVC,,0.00,WeatherDisplay:10.37,2013-06-11 07:17:00,
2013-06-11 03:22:00,65.8,64.3,29.68,West,270,5.1,9.2,95,0.00,OVC,,0.00,WeatherDisplay:10.37,2013-06-11 07:22:00,
2013-06-11 03:27:00,65.5,64.0,29.68,WSW,248,6.2,11.5,95,0.00,OVC,,0.00,WeatherDisplay:10.37,2013-06-11 07:27:00,
2013-06-11 03:32:00,65.3,63.8,29.67,West,270,4.3,5.8,95,0.00,OVC,,0.00,WeatherDisplay:10.37,2013-06-11 07:32:00,
2013-06-11 03:37:00,64.9,63.4,29.67,WSW,248,7.9,10.4,95,0.00,OVC,,0.00,WeatherDisplay:10.37,2013-06-11 07:37:00,
2013-06-11 03:42:00,64.8,63.3,29.67,SW,225,8.1,10.4,95,0.00,OVC,,0.00,WeatherDisplay:10.37,2013-06-11 07:42:00,
2013-06-11 03:47:00,64.6,63.1,29.67,West,270,6.2,9.2,95,0.00,OVC,,0.00,WeatherDisplay:10.37,2013-06-11 07:47:00,
2013-06-11 03:52:00,64.6,63.1,29.67,East,90,6.7,9.2,95,0.00,OVC,,0.00,WeatherDisplay:10.37,2013-06-11 07:52:00,
2013-06-11 03:57:00,64.6,63.1,29.67,SSE,158,5.9,8.1,95,0.00,OVC,,0.00,WeatherDisplay:10.37,2013-06-11 07:57:00,
2013-06-11 04:02:00,64.6,63.1,29.67,WSW,248,8.1,9.9,95,0.00,OVC,,0.00,WeatherDisplay:10.37,2013-06-11 08:02:00,
2013-06-11 04:07:00,64.6,63.1,29.66,West,270,9.5,10.9,95,0.00,OVC,,0.00,WeatherDisplay:10.37,2013-06-11 08:07:00,
2013-06-11 04:12:00,64.6,63.1,29.66,West,270,8.4,11.4,95,0.00,OVC,,0.00,WeatherDisplay:10.37,2013-06-11 08:12:00,
2013-06-11 04:17:00,64.6,63.1,29.66,WSW,248,6.5,10.4,95,0.00,OVC,,0.00,WeatherDisplay:10.37,2013-06-11 08:17:00,
2013-06-11 04:22:00,64.2,62.7,29.66,SW,225,9.4,9.4,95,0.00,OVC,,0.00,WeatherDisplay:10.37,2013-06-11 08:22:00,
2013-06-11 04:27:00,64.0,62.5,29.66,West,270,10.6,12.7,95,0.01,RA,,0.01,WeatherDisplay:10.37,2013-06-11 08:27:00,
2013-06-11 04:32:00,63.9,62.4,29.67,ESE,112,8.5,10.4,95,0.01,RA,,0.01,WeatherDisplay:10.37,2013-06-11 08:32:00,
2013-06-11 04:37:00,63.9,62.4,29.67,WNW,292,8.9,10.4,95,0.03,RA,,0.03,WeatherDisplay:10.37,2013-06-11 08:37:00,
2013-06-11 04:42:00,63.7,62.2,29.67,WSW,248,9.4,11.4,95,0.04,RA,,0.04,WeatherDisplay:10.37,2013-06-11 08:42:00,
2013-06-11 04:47:00,63.3,61.8,29.67,West,270,9.2,15.0,95,0.05,RA,,0.05,WeatherDisplay:10.37,2013-06-11 08:47:00,
2013-06-11 04:52:00,62.8,61.3,29.67,WNW,292,8.9,10.9,95,0.06,RA,,0.06,WeatherDisplay:10.37,2013-06-11 08:52:00,
2013-06-11 04:57:00,62.4,60.9,29.67,SW,225,8.7,11.5,95,0.06,RA,,0.07,WeatherDisplay:10.37,2013-06-11 08:57:00,
2013-06-11 05:02:00,62.1,60.7,29.67,West,270,8.7,10.4,95,0.08,RA,,0.08,WeatherDisplay:10.37,2013-06-11 09:02:00,
2013-06-11 05:07:00,61.9,60.5,29.66,SSW,202,7.7,9.2,95,0.09,RA,,0.09,WeatherDisplay:10.37,2013-06-11 09:07:00,
2013-06-11 05:12:00,61.7,60.3,29.66,West,270,7.4,9.2,95,0.09,-RA,,0.09,WeatherDisplay:10.37,2013-06-11 09:12:00,
2013-06-11 05:17:00,61.5,60.1,29.66,SW,225,6.6,6.9,95,0.09,-RA,,0.09,WeatherDisplay:10.37,2013-06-11 09:17:00,
2013-06-11 05:22:00,61.2,59.8,29.66,SW,225,8.9,11.5,95,0.09,-RA,,0.09,WeatherDisplay:10.37,2013-06-11 09:22:00,
2013-06-11 05:27:00,61.2,59.8,29.66,SW,225,8.8,9.2,95,0.08,-RA,,0.09,WeatherDisplay:10.37,2013-06-11 09:27:00,
2013-06-11 05:32:00,61.0,59.6,29.66,West,270,7.0,11.4,95,0.08,-RA,,0.09,WeatherDisplay:10.37,2013-06-11 09:32:00,
2013-06-11 05:37:00,60.8,59.4,29.66,West,270,7.2,9.4,95,0.06,-RA,,0.09,WeatherDisplay:10.37,2013-06-11 09:37:00,
2013-06-11 05:42:00,60.6,59.2,29.66,SW,225,6.9,8.1,95,0.06,-RA,,0.10,WeatherDisplay:10.37,2013-06-11 09:42:00,
2013-06-11 05:47:00,60.6,59.2,29.66,West,270,6.9,10.9,95,0.05,-RA,,0.10,WeatherDisplay:10.37,2013-06-11 09:47:00,
2013-06-11 05:52:00,60.3,58.9,29.66,West,270,7.9,10.4,95,0.04,OVC,,0.10,WeatherDisplay:10.37,2013-06-11 09:52:00,
2013-06-11 05:57:00,60.3,58.9,29.66,WNW,292,4.8,5.8,95,0.04,OVC,,0.10,WeatherDisplay:10.37,2013-06-11 09:57:00,
2013-06-11 06:02:00,60.3,58.9,29.66,WSW,248,5.8,8.1,95,0.02,-RA,,0.10,WeatherDisplay:10.37,2013-06-11 10:02:00,
2013-06-11 06:07:00,60.3,58.9,29.66,WSW,248,6.7,6.9,95,0.03,-RA,,0.12,WeatherDisplay:10.37,2013-06-11 10:07:00,
2013-06-11 06:12:00,60.1,58.7,29.66,West,270,6.2,8.1,95,0.03,-RA,,0.12,WeatherDisplay:10.37,2013-06-11 10:12:00,
2013-06-11 06:17:00,60.1,58.7,29.67,WSW,248,5.7,5.8,95,0.03,-RA,,0.12,WeatherDisplay:10.37,2013-06-11 10:17:00,
2013-06-11 06:22:00,59.9,58.5,29.67,SW,225,5.2,5.3,95,0.04,-RA,,0.13,WeatherDisplay:10.37,2013-06-11 10:22:00,
2013-06-11 06:27:00,59.9,58.5,29.67,SW,225,4.4,4.6,95,0.05,-RA,,0.14,WeatherDisplay:10.37,2013-06-11 10:27:00,
2013-06-11 06:32:00,59.9,58.5,29.68,SE,135,4.0,6.9,95,0.08,-RA,,0.17,WeatherDisplay:10.37,2013-06-11 10:32:00,
2013-06-11 06:37:00,59.7,58.3,29.68,West,270,6.7,8.3,95,0.10,-RA,,0.20,WeatherDisplay:10.37,2013-06-11 10:37:00,
2013-06-11 06:42:00,59.5,58.1,29.68,West,270,4.5,8.1,95,0.11,-RA,,0.21,WeatherDisplay:10.37,2013-06-11 10:42:00,
2013-06-11 06:47:00,59.5,58.1,29.68,WSW,248,3.9,4.7,95,0.11,-RA,,0.21,WeatherDisplay:10.37,2013-06-11 10:47:00,
2013-06-11 06:52:00,59.5,58.1,29.69,WSW,248,4.9,6.3,95,0.12,-RA,,0.22,WeatherDisplay:10.37,2013-06-11 10:52:00,
2013-06-11 06:57:00,59.5,58.1,29.69,SSW,202,4.4,8.8,95,0.12,-RA,,0.22,WeatherDisplay:10.37,2013-06-11 10:57:00,
2013-06-11 07:02:00,59.4,58.0,29.69,West,270,4.6,7.3,95,0.12,-RA,,0.23,WeatherDisplay:10.37,2013-06-11 11:02:00,
2013-06-11 07:07:00,59.4,58.0,29.69,West,270,3.9,4.6,95,0.11,-RA,,0.23,WeatherDisplay:10.37,2013-06-11 11:07:00,
2013-06-11 07:12:00,59.4,58.0,29.69,West,270,4.5,6.3,95,0.11,-RA,,0.23,WeatherDisplay:10.37,2013-06-11 11:12:00,
2013-06-11 07:17:00,59.4,58.0,29.69,WSW,248,4.0,5.8,95,0.11,-RA,,0.23,WeatherDisplay:10.37,2013-06-11 11:17:00,
2013-06-11 07:22:00,59.4,58.0,29.69,WSW,248,3.8,5.8,95,0.10,-RA,,0.23,WeatherDisplay:10.37,2013-06-11 11:22:00,
2013-06-11 07:27:00,59.4,58.0,29.69,West,270,4.4,5.8,95,0.09,-RA,,0.23,WeatherDisplay:10.37,2013-06-11 11:27:00,
2013-06-11 07:32:00,59.4,58.0,29.69,SW,225,4.6,5.3,95,0.06,OVC,,0.23,WeatherDisplay:10.37,2013-06-11 11:32:00,
2013-06-11 07:37:00,59.4,58.0,29.69,West,270,6.5,10.4,95,0.04,OVC,,0.23,WeatherDisplay:10.37,2013-06-11 11:37:00,
2013-06-11 07:42:00,59.4,58.0,29.70,West,270,5.1,6.9,95,0.02,OVC,,0.23,WeatherDisplay:10.37,2013-06-11 11:42:00,
2013-06-11 07:47:00,59.4,58.0,29.70,SW,225,5.2,5.8,95,0.02,OVC,,0.23,WeatherDisplay:10.37,2013-06-11 11:47:00,
2013-06-11 07:52:00,59.4,58.0,29.70,SW,225,4.7,5.8,95,0.01,OVC,,0.23,WeatherDisplay:10.37,2013-06-11 11:52:00,
2013-06-11 07:57:00,59.4,58.0,29.70,SW,225,6.3,8.1,95,0.01,OVC,,0.23,WeatherDisplay:10.37,2013-06-11 11:57:00,
2013-06-11 08:02:00,59.4,58.0,29.70,West,270,6.6,6.9,95,0.01,-RA,,0.23,WeatherDisplay:10.37,2013-06-11 12:02:00,
2013-06-11 08:07:00,59.4,58.0,29.70,SW,225,5.0,5.8,95,0.00,-RA,,0.23,WeatherDisplay:10.37,2013-06-11 12:07:00,
2013-06-11 08:12:00,59.5,58.1,29.70,WSW,248,6.0,8.1,95,0.00,-RA,,0.23,WeatherDisplay:10.37,2013-06-11 12:12:00,
2013-06-11 08:17:00,59.7,58.3,29.71,SSW,202,4.9,10.4,95,0.00,-RA,,0.23,WeatherDisplay:10.37,2013-06-11 12:17:00,
2013-06-11 08:22:00,59.7,58.3,29.71,West,270,5.3,6.9,95,0.00,-RA,,0.23,WeatherDisplay:10.37,2013-06-11 12:22:00,
2013-06-11 08:27:00,59.9,58.5,29.71,West,270,4.3,5.8,95,0.00,-RA,,0.23,WeatherDisplay:10.37,2013-06-11 12:27:00,
2013-06-11 08:32:00,59.9,58.5,29.72,West,270,5.4,5.8,95,0.00,-RA,,0.23,WeatherDisplay:10.37,2013-06-11 12:32:00,
2013-06-11 08:37:00,60.1,58.7,29.72,West,270,6.1,6.9,95,0.00,-RA,,0.23,WeatherDisplay:10.37,2013-06-11 12:37:00,
2013-06-11 08:42:00,60.3,58.9,29.72,West,270,5.3,5.8,95,0.00,-RA,,0.23,WeatherDisplay:10.37,2013-06-11 12:42:00,
2013-06-11 08:47:00,60.3,58.9,29.72,SSW,202,4.1,5.3,95,0.00,-RA,,0.23,WeatherDisplay:10.37,2013-06-11 12:47:00,
2013-06-11 08:52:00,60.4,59.0,29.72,SW,225,4.5,5.8,95,0.00,-RA,,0.23,WeatherDisplay:10.37,2013-06-11 12:52:00,
2013-06-11 08:57:00,60.6,59.2,29.72,SSW,202,3.9,5.8,95,0.00,-RA,,0.23,WeatherDisplay:10.37,2013-06-11 12:57:00,
2013-06-11 09:02:00,60.8,59.4,29.72,North,360,4.8,4.8,95,0.00,-RA,,0.23,WeatherDisplay:10.37,2013-06-11 13:02:00,
2013-06-11 09:07:00,60.8,59.4,29.72,West,270,4.4,5.8,95,0.00,-RA,,0.23,WeatherDisplay:10.37,2013-06-11 13:07:00,
2013-06-11 09:12:00,61.0,59.6,29.72,West,270,3.7,6.3,95,0.00,-RA,,0.23,WeatherDisplay:10.37,2013-06-11 13:12:00,
2013-06-11 09:17:00,61.0,59.6,29.72,West,270,3.4,6.3,95,0.00,-RA,,0.23,WeatherDisplay:10.37,2013-06-11 13:17:00,
2013-06-11 09:22:00,61.2,59.8,29.72,SSW,202,4.5,6.9,95,0.00,OVC,,0.23,WeatherDisplay:10.37,2013-06-11 13:22:00,
2013-06-11 09:27:00,61.2,59.8,29.72,West,270,5.5,6.9,95,0.00,OVC,,0.23,WeatherDisplay:10.37,2013-06-11 13:27:00,
2013-06-11 09:32:00,61.3,59.9,29.72,NNW,338,4.8,5.8,95,0.00,OVC,,0.23,WeatherDisplay:10.37,2013-06-11 13:32:00,
2013-06-11 09:37:00,61.5,60.1,29.72,SW,225,5.6,6.9,95,0.00,OVC,,0.23,WeatherDisplay:10.37,2013-06-11 13:37:00,
2013-06-11 09:42:00,61.9,60.5,29.72,SW,225,6.7,10.4,95,0.00,OVC,,0.23,WeatherDisplay:10.37,2013-06-11 13:42:00,
2013-06-11 09:47:00,61.9,60.5,29.72,West,270,5.7,6.9,95,0.00,OVC,,0.23,WeatherDisplay:10.37,2013-06-11 13:47:00,
2013-06-11 09:52:00,62.2,60.8,29.72,SSW,202,5.7,6.9,95,0.00,OVC,,0.23,WeatherDisplay:10.37,2013-06-11 13:52:00,
2013-06-11 09:57:00,62.4,60.9,29.72,West,270,4.6,5.8,95,0.00,OVC,,0.23,WeatherDisplay:10.37,2013-06-11 13:57:00,
2013-06-11 10:02:00,62.6,61.1,29.72,West,270,5.3,6.3,95,0.00,OVC,,0.23,WeatherDisplay:10.37,2013-06-11 14:02:00,
2013-06-11 10:07:00,62.6,61.1,29.72,WSW,248,7.3,8.8,95,0.00,OVC,,0.23,WeatherDisplay:10.37,2013-06-11 14:07:00,
2013-06-11 10:12:00,62.6,61.1,29.72,WSW,248,6.2,8.1,95,0.00,OVC,,0.23,WeatherDisplay:10.37,2013-06-11 14:12:00,
2013-06-11 10:17:00,63.0,61.5,29.73,SSW,202,4.9,6.9,95,0.00,OVC,,0.23,WeatherDisplay:10.37,2013-06-11 14:17:00,
2013-06-11 10:22:00,63.5,62.0,29.73,South,180,6.1,6.9,95,0.00,OVC,,0.23,WeatherDisplay:10.37,2013-06-11 14:22:00,
2013-06-11 10:27:00,63.9,62.4,29.73,West,270,4.7,6.9,95,0.00,OVC,,0.23,WeatherDisplay:10.37,2013-06-11 14:27:00,
2013-06-11 10:32:00,63.7,62.2,29.73,SSW,202,6.5,7.3,95,0.00,OVC,,0.23,WeatherDisplay:10.37,2013-06-11 14:32:00,
2013-06-11 10:37:00,63.3,61.8,29.73,SW,225,4.7,7.3,95,0.00,OVC,,0.23,WeatherDisplay:10.37,2013-06-11 14:37:00,
2013-06-11 10:42:00,63.1,61.6,29.73,West,270,3.9,5.8,95,0.00,OVC,,0.23,WeatherDisplay:10.37,2013-06-11 14:42:00,
2013-06-11 10:47:00,63.1,61.6,29.73,SW,225,5.2,7.3,95,0.00,OVC,,0.23,WeatherDisplay:10.37,2013-06-11 14:47:00,
2013-06-11 10:52:00,63.1,61.6,29.73,SW,225,5.1,5.8,95,0.00,OVC,,0.23,WeatherDisplay:10.37,2013-06-11 14:52:00,
2013-06-11 10:57:00,63.1,61.6,29.73,West,270,5.1,6.9,95,0.00,OVC,,0.23,WeatherDisplay:10.37,2013-06-11 14:57:00,
2013-06-11 11:02:00,63.1,61.6,29.73,SW,225,6.8,8.1,95,0.00,OVC,,0.23,WeatherDisplay:10.37,2013-06-11 15:02:00,
2013-06-11 11:07:00,63.3,61.8,29.74,West,270,7.3,8.1,95,0.00,OVC,,0.23,WeatherDisplay:10.37,2013-06-11 15:07:00,
2013-06-11 11:12:00,64.4,62.9,29.74,West,270,5.5,5.8,95,0.00,OVC,,0.23,WeatherDisplay:10.37,2013-06-11 15:12:00,
2013-06-11 11:17:00,64.2,62.7,29.74,SW,225,6.7,8.1,95,0.00,OVC,,0.23,WeatherDisplay:10.37,2013-06-11 15:17:00,
2013-06-11 11:22:00,64.6,63.1,29.74,SW,225,5.3,9.2,95,0.00,OVC,,0.23,WeatherDisplay:10.37,2013-06-11 15:22:00,
2013-06-11 11:27:00,64.9,63.4,29.74,SW,225,5.2,8.1,95,0.00,OVC,,0.23,WeatherDisplay:10.37,2013-06-11 15:27:00,
2013-06-11 11:32:00,65.5,64.0,29.75,SSW,202,4.6,6.8,95,0.00,OVC,,0.23,WeatherDisplay:10.37,2013-06-11 15:32:00,
2013-06-11 11:37:00,65.8,64.0,29.75,West,270,4.5,5.8,94,0.00,OVC,,0.23,WeatherDisplay:10.37,2013-06-11 15:37:00,
2013-06-11 11:42:00,66.4,64.3,29.74,West,270,6.1,6.9,93,0.00,OVC,,0.23,WeatherDisplay:10.37,2013-06-11 15:42:00,
2013-06-11 11:47:00,66.6,64.2,29.74,WSW,248,4.6,5.8,92,0.00,OVC,,0.23,WeatherDisplay:10.37,2013-06-11 15:47:00,
2013-06-11 11:52:00,66.2,63.8,29.74,West,270,5.3,5.8,92,0.00,OVC,,0.23,WeatherDisplay:10.37,2013-06-11 15:52:00,
2013-06-11 11:57:00,66.6,64.2,29.75,North,360,5.1,6.9,92,0.00,OVC,,0.23,WeatherDisplay:10.37,2013-06-11 15:57:00,
2013-06-11 12:02:00,66.7,64.0,29.75,West,270,5.8,6.9,91,0.00,OVC,,0.23,WeatherDisplay:10.37,2013-06-11 16:02:00,
2013-06-11 12:07:00,66.9,64.2,29.75,NNW,338,5.0,5.8,91,0.00,OVC,,0.23,WeatherDisplay:10.37,2013-06-11 16:07:00,
2013-06-11 12:12:00,67.5,64.1,29.75,West,270,4.2,5.8,89,0.00,BKN,,0.23,WeatherDisplay:10.37,2013-06-11 16:12:00,
2013-06-11 12:17:00,67.6,64.2,29.75,West,270,4.7,6.9,89,0.00,BKN,,0.23,WeatherDisplay:10.37,2013-06-11 16:17:00,
2013-06-11 12:22:00,68.2,64.5,29.75,NW,315,7.7,9.9,88,0.00,BKN,,0.23,WeatherDisplay:10.37,2013-06-11 16:22:00,
2013-06-11 12:27:00,67.5,64.5,29.75,SW,225,6.9,6.9,90,0.00,BKN,,0.23,WeatherDisplay:10.37,2013-06-11 16:27:00,
2013-06-11 12:32:00,66.9,64.2,29.75,SW,225,6.4,6.9,91,0.00,BKN,,0.23,WeatherDisplay:10.37,2013-06-11 16:32:00,
2013-06-11 12:37:00,66.7,64.0,29.75,SE,135,6.7,6.8,91,0.00,BKN,,0.23,WeatherDisplay:10.37,2013-06-11 16:37:00,
2013-06-11 12:42:00,66.7,64.0,29.75,SSW,202,6.3,6.9,91,0.00,BKN,,0.23,WeatherDisplay:10.37,2013-06-11 16:42:00,
2013-06-11 12:47:00,67.1,64.1,29.75,West,270,5.6,6.9,90,0.00,BKN,,0.23,WeatherDisplay:10.37,2013-06-11 16:47:00,
2013-06-11 12:52:00,67.1,64.1,29.75,WNW,292,4.6,5.8,90,0.00,BKN,,0.23,WeatherDisplay:10.37,2013-06-11 16:52:00,
2013-06-11 12:57:00,66.9,63.9,29.75,SW,225,4.8,6.9,90,0.00,BKN,,0.23,WeatherDisplay:10.37,2013-06-11 16:57:00,
2013-06-11 13:02:00,66.7,64.0,29.75,West,270,6.2,8.3,91,0.00,OVC,,0.23,WeatherDisplay:10.37,2013-06-11 17:02:00,
2013-06-11 13:07:00,66.6,63.9,29.74,WSW,248,5.1,9.2,91,0.00,OVC,,0.23,WeatherDisplay:10.37,2013-06-11 17:07:00,
2013-06-11 13:12:00,66.7,64.0,29.74,SSW,202,4.7,7.3,91,0.00,BKN,,0.23,WeatherDisplay:10.37,2013-06-11 17:12:00,
2013-06-11 13:17:00,66.0,63.6,29.75,SW,225,5.4,8.1,92,0.00,BKN,,0.23,WeatherDisplay:10.37,2013-06-11 17:17:00,
2013-06-11 13:22:00,66.0,63.6,29.75,SW,225,5.8,5.8,92,0.00,OVC,,0.23,WeatherDisplay:10.37,2013-06-11 17:22:00,
2013-06-11 13:27:00,64.8,63.0,29.75,SW,225,6.5,10.4,94,0.00,OVC,,0.23,WeatherDisplay:10.37,2013-06-11 17:27:00,
2013-06-11 13:32:00,64.6,62.8,29.75,West,270,5.7,6.9,94,0.00,OVC,,0.23,WeatherDisplay:10.37,2013-06-11 17:32:00,
2013-06-11 13:37:00,64.4,62.9,29.75,WSW,248,5.7,6.9,95,0.00,OVC,,0.23,WeatherDisplay:10.37,2013-06-11 17:37:00,
2013-06-11 13:42:00,65.3,63.5,29.75,WSW,248,5.3,5.8,94,0.00,OVC,,0.23,WeatherDisplay:10.37,2013-06-11 17:42:00,
2013-06-11 13:47:00,65.5,63.4,29.75,WNW,292,6.4,7.8,93,0.00,OVC,,0.23,WeatherDisplay:10.37,2013-06-11 17:47:00,
2013-06-11 13:52:00,64.9,62.8,29.75,WSW,248,3.8,5.8,93,0.00,OVC,,0.23,WeatherDisplay:10.37,2013-06-11 17:52:00,
2013-06-11 13:57:00,64.4,62.6,29.75,WSW,248,5.8,6.9,94,0.00,OVC,,0.23,WeatherDisplay:10.37,2013-06-11 17:57:00,
2013-06-11 14:02:00,64.2,62.4,29.75,West,270,6.0,6.9,94,0.00,BKN,,0.23,WeatherDisplay:10.37,2013-06-11 18:02:00,
2013-06-11 14:07:00,64.4,62.6,29.76,West,270,4.9,5.8,94,0.00,BKN,,0.23,WeatherDisplay:10.37,2013-06-11 18:07:00,
2013-06-11 14:12:00,64.8,63.0,29.76,SW,225,4.0,4.6,94,0.00,BKN,,0.23,WeatherDisplay:10.37,2013-06-11 18:12:00,
2013-06-11 14:17:00,65.1,63.0,29.76,WSW,248,5.1,5.8,93,0.00,BKN,,0.23,WeatherDisplay:10.37,2013-06-11 18:17:00,
2013-06-11 14:22:00,65.1,63.0,29.76,SW,225,5.5,6.3,93,0.00,BKN,,0.23,WeatherDisplay:10.37,2013-06-11 18:22:00,
2013-06-11 14:27:00,64.9,62.8,29.76,West,270,4.0,5.8,93,0.00,BKN,,0.23,WeatherDisplay:10.37,2013-06-11 18:27:00,
2013-06-11 14:32:00,65.5,63.4,29.76,West,270,4.8,5.8,93,0.00,BKN,,0.23,WeatherDisplay:10.37,2013-06-11 18:32:00,
2013-06-11 14:37:00,65.5,63.1,29.76,West,270,6.3,6.3,92,0.00,BKN,,0.23,WeatherDisplay:10.37,2013-06-11 18:37:00,
2013-06-11 14:42:00,65.8,63.4,29.76,West,270,6.9,8.8,92,0.00,BKN,,0.23,WeatherDisplay:10.37,2013-06-11 18:42:00,
2013-06-11 14:47:00,66.0,63.3,29.76,South,180,5.2,5.8,91,0.00,BKN,,0.23,WeatherDisplay:10.37,2013-06-11 18:47:00,
2013-06-11 14:52:00,66.6,63.9,29.76,WSW,248,3.6,4.6,91,0.00,BKN,,0.23,WeatherDisplay:10.37,2013-06-11 18:52:00,
2013-06-11 14:57:00,66.6,63.6,29.77,WSW,248,5.1,6.9,90,0.00,BKN,,0.23,WeatherDisplay:10.37,2013-06-11 18:57:00,
2013-06-11 15:02:00,67.6,63.6,29.77,SW,225,4.5,4.6,87,0.00,OVC,,0.23,WeatherDisplay:10.37,2013-06-11 19:02:00,
2013-06-11 15:07:00,67.6,63.3,29.77,SW,225,6.5,6.9,86,0.00,OVC,,0.23,WeatherDisplay:10.37,2013-06-11 19:07:00,
2013-06-11 15:12:00,67.8,63.5,29.77,WSW,248,7.4,9.2,86,0.00,OVC,,0.23,WeatherDisplay:10.37,2013-06-11 19:12:00,
2013-06-11 15:17:00,67.8,63.5,29.77,SSW,202,7.0,10.4,86,0.00,OVC,,0.23,WeatherDisplay:10.37,2013-06-11 19:17:00,
2013-06-11 15:22:00,69.4,64.7,29.77,SW,225,4.4,5.8,85,0.00,OVC,,0.23,WeatherDisplay:10.37,2013-06-11 19:22:00,
2013-06-11 15:27:00,70.5,64.4,29.77,West,270,7.0,7.3,81,0.00,OVC,,0.23,WeatherDisplay:10.37,2013-06-11 19:27:00,
2013-06-11 15:32:00,69.8,64.4,29.77,West,270,4.2,5.8,83,0.00,OVC,,0.23,WeatherDisplay:10.37,2013-06-11 19:32:00,
2013-06-11 15:37:00,68.9,63.9,29.77,SW,225,5.0,6.9,84,0.00,OVC,,0.23,WeatherDisplay:10.37,2013-06-11 19:37:00,
2013-06-11 15:42:00,68.4,63.7,29.77,SW,225,5.3,6.9,85,0.00,OVC,,0.23,WeatherDisplay:10.37,2013-06-11 19:42:00,
2013-06-11 15:47:00,68.0,63.3,29.77,WSW,248,4.4,6.9,85,0.00,OVC,,0.23,WeatherDisplay:10.37,2013-06-11 19:47:00,
2013-06-11 15:52:00,68.2,63.5,29.78,West,270,3.9,4.6,85,0.00,OVC,,0.23,WeatherDisplay:10.37,2013-06-11 19:52:00,
2013-06-11 15:57:00,67.6,63.6,29.78,SSW,202,2.9,5.8,87,0.00,OVC,,0.23,WeatherDisplay:10.37,2013-06-11 19:57:00,
2013-06-11 16:02:00,67.8,63.8,29.78,WNW,292,4.9,6.3,87,0.00,OVC,,0.23,WeatherDisplay:10.37,2013-06-11 20:02:00,
2013-06-11 16:08:00,67.5,63.8,29.78,WSW,248,5.3,6.8,88,0.00,OVC,,0.23,WeatherDisplay:10.37,2013-06-11 20:08:00,
2013-06-11 16:13:00,68.7,64.0,29.78,SW,225,6.6,6.9,85,0.00,BKN,,0.23,WeatherDisplay:10.37,2013-06-11 20:13:00,
2013-06-11 16:18:00,67.6,63.3,29.77,West,270,7.7,8.1,86,0.00,BKN,,0.23,WeatherDisplay:10.37,2013-06-11 20:18:00,
2013-06-11 16:23:00,66.9,62.9,29.77,SSW,202,4.4,6.9,87,0.00,BKN,,0.23,WeatherDisplay:10.37,2013-06-11 20:23:00,
2013-06-11 16:28:00,68.2,63.5,29.77,WSW,248,6.8,7.8,85,0.00,BKN,,0.23,WeatherDisplay:10.37,2013-06-11 20:28:00,
2013-06-11 16:33:00,68.4,63.4,29.78,WSW,248,6.7,9.4,84,0.00,BKN,,0.23,WeatherDisplay:10.37,2013-06-11 20:33:00,
2013-06-11 16:38:00,68.4,63.4,29.78,WSW,248,6.2,8.1,84,0.00,BKN,,0.23,WeatherDisplay:10.37,2013-06-11 20:38:00,
2013-06-11 16:43:00,68.4,63.7,29.77,WSW,248,6.7,8.3,85,0.00,BKN,,0.23,WeatherDisplay:10.37,2013-06-11 20:43:00,
2013-06-11 16:48:00,68.2,63.5,29.77,SW,225,4.4,6.9,85,0.00,BKN,,0.23,WeatherDisplay:10.37,2013-06-11 20:48:00,
2013-06-11 16:53:00,68.0,63.7,29.77,SW,225,6.2,9.4,86,0.00,BKN,,0.23,WeatherDisplay:10.37,2013-06-11 20:53:00,
2013-06-11 16:58:00,69.1,64.1,29.77,WSW,248,6.2,6.9,84,0.00,BKN,,0.23,WeatherDisplay:10.37,2013-06-11 20:58:00,
2013-06-11 17:03:00,69.6,64.5,29.77,SW,225,5.5,7.8,84,0.00,BKN,,0.23,WeatherDisplay:10.37,2013-06-11 21:03:00,
2013-06-11 17:08:00,69.1,63.7,29.77,NW,315,7.2,9.4,83,0.00,BKN,,0.23,WeatherDisplay:10.37,2013-06-11 21:08:00,
2013-06-11 17:13:00,68.2,63.5,29.77,NW,315,5.8,6.9,85,0.00,FEW,,0.23,WeatherDisplay:10.37,2013-06-11 21:13:00,
2013-06-11 17:18:00,69.4,64.4,29.77,West,270,4.1,5.8,84,0.00,FEW,,0.23,WeatherDisplay:10.37,2013-06-11 21:18:00,
2013-06-11 17:23:00,68.5,63.5,29.77,West,270,5.8,8.1,84,0.00,FEW,,0.23,WeatherDisplay:10.37,2013-06-11 21:23:00,
2013-06-11 17:28:00,68.2,63.5,29.77,West,270,5.6,8.1,85,0.00,FEW,,0.23,WeatherDisplay:10.37,2013-06-11 21:28:00,
2013-06-11 17:33:00,67.8,63.5,29.77,SW,225,6.3,8.3,86,0.00,FEW,,0.23,WeatherDisplay:10.37,2013-06-11 21:33:00,
2013-06-11 17:38:00,67.1,63.1,29.77,South,180,7.1,8.1,87,0.00,FEW,,0.23,WeatherDisplay:10.37,2013-06-11 21:38:00,
2013-06-11 17:43:00,66.9,62.9,29.78,WNW,292,4.5,5.8,87,0.00,FEW,,0.23,WeatherDisplay:10.37,2013-06-11 21:43:00,
2013-06-11 17:48:00,66.6,62.9,29.78,SW,225,3.5,6.9,88,0.00,FEW,,0.23,WeatherDisplay:10.37,2013-06-11 21:48:00,
2013-06-11 17:53:00,66.2,62.5,29.78,SW,225,3.9,6.3,88,0.00,FEW,,0.23,WeatherDisplay:10.37,2013-06-11 21:53:00,
2013-06-11 17:58:00,65.7,62.7,29.78,WSW,248,4.5,8.1,90,0.00,FEW,,0.23,WeatherDisplay:10.37,2013-06-11 21:58:00,
2013-06-11 18:03:00,65.8,62.5,29.78,West,270,5.3,5.8,89,0.00,BKN,,0.23,WeatherDisplay:10.37,2013-06-11 22:03:00,
2013-06-11 18:08:00,66.4,63.1,29.78,West,270,5.2,7.3,89,0.00,BKN,,0.23,WeatherDisplay:10.37,2013-06-11 22:08:00,
2013-06-11 18:13:00,66.4,62.7,29.78,NW,315,5.3,5.8,88,0.00,BKN,,0.23,WeatherDisplay:10.37,2013-06-11 22:13:00,
2013-06-11 18:18:00,66.2,62.5,29.78,WSW,248,6.8,6.9,88,0.00,BKN,,0.23,WeatherDisplay:10.37,2013-06-11 22:18:00,
2013-06-11 18:23:00,66.9,62.9,29.78,SW,225,5.6,9.2,87,0.00,BKN,,0.23,WeatherDisplay:10.37,2013-06-11 22:23:00,
2013-06-11 18:28:00,66.2,62.5,29.78,West,270,4.7,8.1,88,0.00,BKN,,0.23,WeatherDisplay:10.37,2013-06-11 22:28:00,
2013-06-11 18:33:00,66.0,62.7,29.78,SW,225,5.4,7.8,89,0.00,BKN,,0.23,WeatherDisplay:10.37,2013-06-11 22:33:00,
2013-06-11 18:38:00,65.7,62.4,29.78,SW,225,7.1,8.1,89,0.00,BKN,,0.23,WeatherDisplay:10.37,2013-06-11 22:38:00,
2013-06-11 18:43:00,65.7,62.7,29.79,WNW,292,4.4,4.7,90,0.00,BKN,,0.23,WeatherDisplay:10.37,2013-06-11 22:43:00,
2013-06-11 18:48:00,65.5,62.5,29.79,WSW,248,5.1,5.3,90,0.00,BKN,,0.23,WeatherDisplay:10.37,2013-06-11 22:48:00,
2013-06-11 18:53:00,65.1,62.4,29.79,West,270,5.5,6.9,91,0.00,BKN,,0.23,WeatherDisplay:10.37,2013-06-11 22:53:00,
2013-06-11 18:58:00,64.9,62.2,29.79,West,270,4.2,5.8,91,0.00,BKN,,0.23,WeatherDisplay:10.37,2013-06-11 22:58:00,
2013-06-11 19:03:00,64.9,62.2,29.79,West,270,4.8,5.8,91,0.00,BKN,,0.23,WeatherDisplay:10.37,2013-06-11 23:03:00,
2013-06-11 19:08:00,64.6,62.2,29.78,WSW,248,5.2,7.8,92,0.00,BKN,,0.23,WeatherDisplay:10.37,2013-06-11 23:08:00,
2013-06-11 19:13:00,64.6,62.2,29.78,West,270,5.5,6.9,92,0.00,BKN,,0.23,WeatherDisplay:10.37,2013-06-11 23:13:00,
2013-06-11 19:18:00,64.4,62.0,29.79,West,270,4.7,8.1,92,0.00,BKN,,0.23,WeatherDisplay:10.37,2013-06-11 23:18:00,
2013-06-11 19:23:00,64.0,61.6,29.79,SW,225,6.4,6.9,92,0.00,BKN,,0.23,WeatherDisplay:10.37,2013-06-11 23:23:00,
2013-06-11 19:28:00,63.9,61.8,29.79,SSW,202,6.4,8.1,93,0.00,BKN,,0.23,WeatherDisplay:10.37,2013-06-11 23:28:00,
2013-06-11 19:33:00,63.9,61.8,29.79,West,270,8.8,10.4,93,0.00,BKN,,0.23,WeatherDisplay:10.37,2013-06-11 23:33:00,
2013-06-11 19:38:00,63.7,61.6,29.79,WNW,292,5.7,6.9,93,0.00,BKN,,0.23,WeatherDisplay:10.37,2013-06-11 23:38:00,
2013-06-11 19:43:00,63.5,61.4,29.80,SW,225,6.2,6.2,93,0.00,BKN,,0.23,WeatherDisplay:10.37,2013-06-11 23:43:00,
2013-06-11 19:48:00,63.1,61.3,29.80,NW,315,6.1,6.9,94,0.00,BKN,,0.23,WeatherDisplay:10.37,2013-06-11 23:48:00,
2013-06-11 19:53:00,63.1,61.3,29.80,SSW,202,4.2,6.3,94,0.00,BKN,,0.23,WeatherDisplay:10.37,2013-06-11 23:53:00,
2013-06-11 19:58:00,62.8,61.3,29.80,SW,225,7.9,10.4,95,0.00,BKN,,0.23,WeatherDisplay:10.37,2013-06-11 23:58:00,
2013-06-11 20:03:00,62.8,61.3,29.80,SW,225,3.8,5.8,95,0.00,BKN,,0.23,WeatherDisplay:10.37,2013-06-12 00:03:00,
2013-06-11 20:08:00,62.6,61.1,29.81,West,270,4.3,8.1,95,0.00,BKN,,0.23,WeatherDisplay:10.37,2013-06-12 00:08:00,
2013-06-11 20:13:00,62.4,60.9,29.81,West,270,5.1,8.1,95,0.00,OVC,,0.23,WeatherDisplay:10.37,2013-06-12 00:13:00,
2013-06-11 20:18:00,62.2,60.8,29.81,WSW,248,4.5,6.9,95,0.00,OVC,,0.23,WeatherDisplay:10.37,2013-06-12 00:18:00,
2013-06-11 20:23:00,62.2,60.8,29.81,West,270,6.6,6.9,95,0.00,OVC,,0.23,WeatherDisplay:10.37,2013-06-12 00:23:00,
2013-06-11 20:28:00,62.1,60.7,29.81,West,270,6.2,7.3,95,0.00,OVC,,0.23,WeatherDisplay:10.37,2013-06-12 00:28:00,
2013-06-11 20:33:00,62.1,60.7,29.81,South,180,5.3,6.9,95,0.00,OVC,,0.23,WeatherDisplay:10.37,2013-06-12 00:33:00,
2013-06-11 20:38:00,61.9,60.5,29.81,West,270,5.4,6.9,95,0.00,OVC,,0.23,WeatherDisplay:10.37,2013-06-12 00:38:00,
2013-06-11 20:43:00,61.9,60.5,29.80,WNW,292,2.4,4.6,95,0.00,OVC,,0.23,WeatherDisplay:10.37,2013-06-12 00:43:00,
2013-06-11 20:48:00,61.9,60.5,29.80,WSW,248,3.5,5.8,95,0.00,OVC,,0.23,WeatherDisplay:10.37,2013-06-12 00:48:00,
2013-06-11 20:53:00,61.9,60.5,29.81,SW,225,5.4,5.8,95,0.00,OVC,,0.23,WeatherDisplay:10.37,2013-06-12 00:53:00,
2013-06-11 20:58:00,61.7,60.3,29.81,SW,225,4.3,4.3,95,0.00,OVC,,0.23,WeatherDisplay:10.37,2013-06-12 00:58:00,
2013-06-11 21:03:00,61.7,60.3,29.81,SSW,202,4.4,6.3,95,0.00,BKN,,0.23,WeatherDisplay:10.37,2013-06-12 01:03:00,
2013-06-11 21:08:00,61.7,60.3,29.81,West,270,4.1,4.7,95,0.00,BKN,,0.23,WeatherDisplay:10.37,2013-06-12 01:08:00,
2013-06-11 21:13:00,61.5,60.1,29.81,West,270,5.4,6.3,95,0.00,BKN,,0.23,WeatherDisplay:10.37,2013-06-12 01:13:00,
2013-06-11 21:18:00,61.5,60.1,29.82,West,270,3.3,6.9,95,0.00,BKN,,0.23,WeatherDisplay:10.37,2013-06-12 01:18:00,
2013-06-11 21:23:00,61.5,60.1,29.82,SW,225,3.9,4.7,95,0.00,BKN,,0.23,WeatherDisplay:10.37,2013-06-12 01:23:00,
2013-06-11 21:28:00,61.5,60.1,29.82,SW,225,4.6,6.9,95,0.00,BKN,,0.23,WeatherDisplay:10.37,2013-06-12 01:28:00,
2013-06-11 21:33:00,61.5,60.1,29.82,South,180,6.2,6.9,95,0.00,BKN,,0.23,WeatherDisplay:10.37,2013-06-12 01:33:00,
2013-06-11 21:38:00,61.5,60.1,29.82,West,270,2.8,4.6,95,0.00,BKN,,0.23,WeatherDisplay:10.37,2013-06-12 01:38:00,
2013-06-11 21:43:00,61.3,59.9,29.83,WSW,248,2.5,3.5,95,0.00,BKN,,0.23,WeatherDisplay:10.37,2013-06-12 01:43:00,
2013-06-11 21:48:00,61.3,59.9,29.83,WSW,248,2.9,5.8,95,0.00,BKN,,0.23,WeatherDisplay:10.37,2013-06-12 01:48:00,
2013-06-11 21:53:00,61.3,59.9,29.83,WSW,248,3.6,4.6,95,0.00,BKN,,0.23,WeatherDisplay:10.37,2013-06-12 01:53:00,
2013-06-11 21:58:00,61.3,59.9,29.83,NNW,338,3.9,4.6,95,0.00,BKN,,0.23,WeatherDisplay:10.37,2013-06-12 01:58:00,
2013-06-11 22:03:00,61.3,59.9,29.83,West,270,0.9,3.2,95,0.00,BKN,,0.23,WeatherDisplay:10.37,2013-06-12 02:03:00,
2013-06-11 22:08:00,61.2,59.8,29.83,WSW,248,2.7,4.6,95,0.00,BKN,,0.23,WeatherDisplay:10.37,2013-06-12 02:08:00,
2013-06-11 22:13:00,61.2,59.8,29.83,WSW,248,2.7,3.7,95,0.00,BKN,,0.23,WeatherDisplay:10.37,2013-06-12 02:13:00,
2013-06-11 22:18:00,61.2,59.8,29.84,WSW,248,2.8,3.5,95,0.00,BKN,,0.23,WeatherDisplay:10.37,2013-06-12 02:18:00,
2013-06-11 22:23:00,61.0,59.6,29.84,West,270,1.9,2.7,95,0.00,BKN,,0.23,WeatherDisplay:10.37,2013-06-12 02:23:00,
2013-06-11 22:28:00,61.0,59.6,29.84,West,270,2.4,3.5,95,0.00,BKN,,0.23,WeatherDisplay:10.37,2013-06-12 02:28:00,
2013-06-11 22:33:00,61.0,59.6,29.84,SSW,202,1.7,2.3,95,0.00,BKN,,0.23,WeatherDisplay:10.37,2013-06-12 02:33:00,
2013-06-11 22:38:00,61.0,59.6,29.84,SSE,158,1.1,1.1,95,0.00,BKN,,0.23,WeatherDisplay:10.37,2013-06-12 02:38:00,
2013-06-11 22:43:00,61.0,59.6,29.84,West,270,1.9,2.3,95,0.00,BKN,,0.23,WeatherDisplay:10.37,2013-06-12 02:43:00,
2013-06-11 22:48:00,60.8,59.4,29.84,West,270,0.0,0.0,95,0.00,BKN,,0.23,WeatherDisplay:10.37,2013-06-12 02:48:00,
2013-06-11 22:53:00,60.8,59.4,29.84,NNE,22,2.5,4.6,95,0.00,BKN,,0.23,WeatherDisplay:10.37,2013-06-12 02:53:00,
2013-06-11 22:58:00,60.8,59.4,29.84,WSW,248,1.9,2.3,95,0.00,BKN,,0.23,WeatherDisplay:10.37,2013-06-12 02:58:00,
2013-06-11 23:03:00,60.6,59.2,29.84,WSW,248,0.6,1.1,95,0.00,BKN,,0.23,WeatherDisplay:10.37,2013-06-12 03:03:00,
2013-06-11 23:08:00,60.6,59.2,29.84,WSW,248,2.0,2.3,95,0.00,BKN,,0.23,WeatherDisplay:10.37,2013-06-12 03:08:00,
2013-06-11 23:13:00,60.6,59.2,29.84,WSW,248,1.9,2.7,95,0.00,BKN,,0.23,WeatherDisplay:10.37,2013-06-12 03:13:00,
2013-06-11 23:18:00,60.6,59.2,29.85,SW,225,0.9,4.2,95,0.00,BKN,,0.23,WeatherDisplay:10.37,2013-06-12 03:18:00,
2013-06-11 23:23:00,60.6,59.2,29.85,SSW,202,0.9,1.7,95,0.00,BKN,,0.23,WeatherDisplay:10.37,2013-06-12 03:23:00,
2013-06-11 23:28:00,60.6,59.2,29.85,WNW,292,2.2,2.7,95,0.00,BKN,,0.23,WeatherDisplay:10.37,2013-06-12 03:28:00,
2013-06-11 23:33:00,60.6,59.2,29.85,WSW,248,0.5,2.2,95,0.00,BKN,,0.23,WeatherDisplay:10.37,2013-06-12 03:33:00,
2013-06-11 23:38:00,60.6,59.2,29.85,WSW,248,2.2,2.3,95,0.00,BKN,,0.23,WeatherDisplay:10.37,2013-06-12 03:38:00,
2013-06-11 23:43:00,60.6,59.2,29.85,West,270,0.0,0.0,95,0.00,BKN,,0.23,WeatherDisplay:10.37,2013-06-12 03:43:00,
2013-06-11 23:48:00,60.6,59.2,29.85,WSW,248,0.0,0.0,95,0.00,BKN,,0.23,WeatherDisplay:10.37,2013-06-12 03:48:00,
2013-06-11 23:53:00,60.6,59.2,29.86,SW,225,0.0,0.0,95,0.00,BKN,,0.23,WeatherDisplay:10.37,2013-06-12 03:53:00,
2013-06-11 23:58:00,60.6,59.2,29.86,West,270,1.3,3.2,95,0.00,BKN,,0.23,WeatherDisplay:10.37,2013-06-12 03:58:00,